| time (UTC) | temp C | wind direction | speed KPH | gust KPH | rain 1hr cm | rain 24hr cm | rain mn cm | humidity % | barometer mb |
| 20260508005954 | 15 | 243 | 0.0 | 0.0 | 0.00 | 0.00 | 0.00 | 62 | 1013.8 |
| 20260508005450 | 16 | 243 | 0.0 | 0.0 | 0.00 | 0.00 | 0.00 | 56 | 1013.8 |
| 20260508004947 | 16 | 244 | 0.0 | 0.0 | 0.00 | 0.00 | 0.00 | 55 | 1013.8 |
| 20260508004443 | 17 | 246 | 0.0 | 0.0 | 0.00 | 0.00 | 0.00 | 54 | 1013.9 |
| 20260508003940 | 17 | 216 | 1.6 | 1.6 | 0.00 | 0.00 | 0.00 | 53 | 1013.7 |
| 20260508003436 | 17 | 211 | 6.4 | 6.4 | 0.00 | 0.00 | 0.00 | 49 | 1013.7 |
| 20260508002934 | 17 | 230 | 0.0 | 1.6 | 0.00 | 0.00 | 0.00 | 50 | 1013.6 |
| 20260508002430 | 17 | 190 | 0.0 | 1.6 | 0.00 | 0.00 | 0.00 | 51 | 1013.7 |
| 20260508001926 | 17 | 193 | 4.8 | 6.4 | 0.00 | 0.00 | 0.00 | 49 | 1013.7 |
| 20260508001423 | 18 | 212 | 1.6 | 1.6 | 0.00 | 0.00 | 0.00 | 49 | 1013.8 |
| 20260508000919 | 18 | 221 | 3.2 | 4.8 | 0.00 | 0.00 | 0.00 | 47 | 1013.7 |
| 20260508000415 | 18 | 208 | 3.2 | 4.8 | 0.00 | 0.00 | 0.00 | 47 | 1013.7 |
| 20260507235912 | 18 | 300 | 3.2 | 4.8 | 0.00 | 0.00 | 0.00 | 45 | 1013.9 |
| 20260507235409 | 20 | 181 | 3.2 | 4.8 | 0.00 | 0.00 | 0.00 | 44 | 1013.9 |
| 20260507234906 | 20 | 268 | 0.0 | 1.6 | 0.00 | 0.00 | 0.00 | 43 | 1014.0 |
| 20260507234403 | 20 | 281 | 0.0 | 0.0 | 0.00 | 0.00 | 0.00 | 45 | 1013.9 |
| 20260507233859 | 20 | 194 | 6.4 | 8.0 | 0.00 | 0.00 | 0.00 | 42 | 1014.0 |
| 20260507233356 | 20 | 270 | 0.0 | 0.0 | 0.00 | 0.00 | 0.00 | 46 | 1014.0 |
| 20260507232855 | 21 | 214 | 3.2 | 4.8 | 0.00 | 0.00 | 0.00 | 43 | 1014.0 |
| 20260507232351 | 21 | 262 | 0.0 | 0.0 | 0.00 | 0.00 | 0.00 | 44 | 1013.9 |
| 20260507231849 | 20 | 280 | 0.0 | 1.6 | 0.00 | 0.00 | 0.00 | 44 | 1014.0 |
| 20260507231345 | 20 | 277 | 3.2 | 4.8 | 0.00 | 0.00 | 0.00 | 42 | 1014.0 |
| 20260507230841 | 21 | 259 | 4.8 | 6.4 | 0.00 | 0.00 | 0.00 | 43 | 1014.0 |
| 20260507230339 | 21 | 281 | 1.6 | 1.6 | 0.00 | 0.00 | 0.00 | 43 | 1014.1 |
| 20260507225838 | 21 | 254 | 1.6 | 1.6 | 0.00 | 0.00 | 0.00 | 44 | 1014.3 |
| 20260507225335 | 21 | 236 | 3.2 | 4.8 | 0.00 | 0.00 | 0.00 | 43 | 1014.2 |
| 20260507224831 | 21 | 272 | 3.2 | 4.8 | 0.00 | 0.00 | 0.00 | 42 | 1014.2 |
| 20260507224328 | 20 | 267 | 1.6 | 1.6 | 0.00 | 0.00 | 0.00 | 48 | 1014.2 |
| 20260507223824 | 20 | 321 | 3.2 | 4.8 | 0.00 | 0.00 | 0.00 | 43 | 1014.3 |
| 20260507223320 | 20 | 285 | 3.2 | 4.8 | 0.00 | 0.00 | 0.00 | 42 | 1014.3 |
| 20260507222818 | 20 | 289 | 3.2 | 4.8 | 0.00 | 0.00 | 0.00 | 43 | 1014.2 |
| 20260507222314 | 21 | 312 | 4.8 | 8.0 | 0.00 | 0.00 | 0.00 | 43 | 1014.4 |
| 20260507221811 | 20 | 305 | 4.8 | 6.4 | 0.00 | 0.00 | 0.00 | 44 | 1014.3 |
| 20260507221307 | 20 | 261 | 3.2 | 4.8 | 0.00 | 0.00 | 0.00 | 43 | 1014.7 |
| 20260507220803 | 21 | 280 | 6.4 | 8.0 | 0.00 | 0.00 | 0.00 | 42 | 1014.6 |
| 20260507220302 | 21 | 218 | 3.2 | 4.8 | 0.00 | 0.00 | 0.00 | 47 | 1014.4 |
| 20260507215758 | 21 | 213 | 3.2 | 4.8 | 0.00 | 0.00 | 0.00 | 42 | 1014.8 |
| 20260507215255 | 21 | 289 | 3.2 | 4.8 | 0.00 | 0.00 | 0.00 | 42 | 1014.9 |
| 20260507214752 | 21 | 174 | 6.4 | 8.0 | 0.00 | 0.00 | 0.00 | 42 | 1014.8 |
| 20260507214249 | 21 | 244 | 3.2 | 4.8 | 0.00 | 0.00 | 0.00 | 43 | 1014.9 |
| 20260507213744 | 21 | 276 | 4.8 | 6.4 | 0.00 | 0.00 | 0.00 | 44 | 1014.8 |
| 20260507213242 | 21 | 223 | 8.0 | 11.3 | 0.00 | 0.00 | 0.00 | 41 | 1015.0 |
| 20260507212738 | 21 | 257 | 3.2 | 4.8 | 0.00 | 0.00 | 0.00 | 47 | 1014.9 |
| 20260507212235 | 21 | 272 | 3.2 | 4.8 | 0.00 | 0.00 | 0.00 | 44 | 1014.9 |
| 20260507211732 | 21 | 268 | 6.4 | 6.4 | 0.00 | 0.00 | 0.00 | 41 | 1014.9 |
| 20260507211228 | 21 | 262 | 1.6 | 1.6 | 0.00 | 0.00 | 0.00 | 48 | 1015.0 |
| 20260507210725 | 20 | 311 | 3.2 | 6.4 | 0.00 | 0.00 | 0.00 | 43 | 1015.1 |
| 20260507210222 | 20 | 157 | 6.4 | 8.0 | 0.00 | 0.00 | 0.00 | 42 | 1015.2 |
| 20260507205718 | 20 | 321 | 6.4 | 8.0 | 0.00 | 0.00 | 0.00 | 43 | 1015.3 |
| 20260507205215 | 20 | 311 | 3.2 | 4.8 | 0.00 | 0.00 | 0.00 | 43 | 1015.4 |
| 20260507204711 | 20 | 277 | 1.6 | 1.6 | 0.00 | 0.00 | 0.00 | 47 | 1015.5 |
| 20260507204209 | 21 | 272 | 11.3 | 16.1 | 0.00 | 0.00 | 0.00 | 41 | 1015.7 |
| 20260507203707 | 21 | 275 | 1.6 | 1.6 | 0.00 | 0.00 | 0.00 | 44 | 1015.6 |
| 20260507203204 | 20 | 244 | 3.2 | 6.4 | 0.00 | 0.00 | 0.00 | 42 | 1015.7 |
| 20260507202659 | 20 | 146 | 3.2 | 4.8 | 0.00 | 0.00 | 0.00 | 42 | 1015.7 |
| 20260507202156 | 20 | 232 | 0.0 | 1.6 | 0.00 | 0.00 | 0.00 | 47 | 1015.8 |
| 20260507201651 | 20 | 77 | 3.2 | 6.4 | 0.00 | 0.00 | 0.00 | 50 | 1015.9 |
| 20260507201148 | 18 | 210 | 6.4 | 8.0 | 0.00 | 0.00 | 0.00 | 45 | 1016.1 |
| 20260507200644 | 20 | 171 | 9.7 | 11.3 | 0.00 | 0.00 | 0.00 | 41 | 1016.1 |
| 20260507200140 | 20 | 93 | 3.2 | 4.8 | 0.00 | 0.00 | 0.00 | 45 | 1016.5 |
| 20260507195637 | 20 | 16 | 4.8 | 6.4 | 0.00 | 0.00 | 0.00 | 44 | 1016.1 |
| 20260507195134 | 19 | 291 | 1.6 | 1.6 | 0.00 | 0.00 | 0.00 | 52 | 1016.4 |
| 20260507194631 | 20 | 220 | 8.0 | 11.3 | 0.00 | 0.00 | 0.00 | 44 | 1016.4 |
| 20260507194126 | 19 | 252 | 1.6 | 1.6 | 0.00 | 0.00 | 0.00 | 49 | 1016.4 |
| 20260507193624 | 20 | 230 | 8.0 | 11.3 | 0.00 | 0.00 | 0.00 | 42 | 1016.6 |
| 20260507193121 | 19 | 295 | 1.6 | 4.8 | 0.00 | 0.00 | 0.00 | 47 | 1016.5 |
| 20260507192617 | 19 | 225 | 6.4 | 8.0 | 0.00 | 0.00 | 0.00 | 43 | 1016.5 |
| 20260507192114 | 19 | 287 | 4.8 | 6.4 | 0.00 | 0.00 | 0.00 | 49 | 1016.6 |
| 20260507191610 | 20 | 285 | 1.6 | 1.6 | 0.00 | 0.00 | 0.00 | 48 | 1016.5 |
| 20260507191107 | 20 | 241 | 6.4 | 6.4 | 0.00 | 0.00 | 0.00 | 47 | 1016.5 |
| 20260507190604 | 20 | 261 | 3.2 | 4.8 | 0.00 | 0.00 | 0.00 | 45 | 1016.7 |
| 20260507185601 | 20 | 346 | 3.2 | 4.8 | 0.00 | 0.00 | 0.00 | 46 | 1016.9 |
| 20260507185057 | 19 | 214 | 3.2 | 4.8 | 0.00 | 0.00 | 0.00 | 46 | 1016.9 |
| 20260507184555 | 19 | 226 | 1.6 | 4.8 | 0.00 | 0.00 | 0.00 | 46 | 1017.2 |
| 20260507184053 | 18 | 237 | 1.6 | 1.6 | 0.00 | 0.00 | 0.00 | 48 | 1017.1 |
| 20260507183548 | 18 | 234 | 3.2 | 4.8 | 0.00 | 0.00 | 0.00 | 39 | 1017.0 |
| 20260507183046 | 18 | 185 | 3.2 | 6.4 | 0.00 | 0.00 | 0.00 | 44 | 1017.1 |
| 20260507182542 | 20 | 211 | 8.0 | 12.9 | 0.00 | 0.00 | 0.00 | 41 | 1017.0 |
| 20260507182038 | 19 | 220 | 0.0 | 1.6 | 0.00 | 0.00 | 0.00 | 49 | 1017.1 |
| 20260507181535 | 18 | 256 | 1.6 | 1.6 | 0.00 | 0.00 | 0.00 | 46 | 1017.2 |
| 20260507181031 | 18 | 315 | 4.8 | 6.4 | 0.00 | 0.00 | 0.00 | 47 | 1017.3 |
| 20260507180527 | 18 | 272 | 3.2 | 4.8 | 0.00 | 0.00 | 0.00 | 46 | 1017.2 |
| 20260507180025 | 18 | 212 | 3.2 | 4.8 | 0.00 | 0.00 | 0.00 | 45 | 1017.5 |
| 20260507175521 | 17 | 236 | 6.4 | 11.3 | 0.00 | 0.00 | 0.00 | 47 | 1017.3 |
| 20260507175019 | 18 | 230 | 11.3 | 12.9 | 0.00 | 0.00 | 0.00 | 42 | 1017.4 |
| 20260507174515 | 18 | 244 | 3.2 | 4.8 | 0.00 | 0.00 | 0.00 | 48 | 1017.6 |
| 20260507174013 | 18 | 306 | 3.2 | 6.4 | 0.00 | 0.00 | 0.00 | 45 | 1017.8 |
| 20260507173510 | 18 | 206 | 4.8 | 6.4 | 0.00 | 0.00 | 0.00 | 49 | 1017.6 |
| 20260507173007 | 18 | 202 | 4.8 | 6.4 | 0.00 | 0.00 | 0.00 | 41 | 1017.9 |
| 20260507172503 | 18 | 265 | 0.0 | 4.8 | 0.00 | 0.00 | 0.00 | 43 | 1018.0 |
| 20260507172000 | 18 | 205 | 1.6 | 4.8 | 0.00 | 0.00 | 0.00 | 41 | 1018.1 |
| 20260507171455 | 18 | 274 | 3.2 | 4.8 | 0.00 | 0.00 | 0.00 | 43 | 1018.1 |
| 20260507170953 | 18 | 329 | 4.8 | 6.4 | 0.00 | 0.00 | 0.00 | 41 | 1018.5 |
| 20260507170449 | 18 | 249 | 3.2 | 4.8 | 0.00 | 0.00 | 0.00 | 47 | 1018.4 |
| 20260507165946 | 17 | 276 | 1.6 | 1.6 | 0.00 | 0.00 | 0.00 | 46 | 1018.5 |
| 20260507165442 | 17 | 276 | 4.8 | 6.4 | 0.00 | 0.00 | 0.00 | 45 | 1018.6 |
| 20260507164938 | 18 | 289 | 3.2 | 4.8 | 0.00 | 0.00 | 0.00 | 47 | 1018.7 |
| 20260507164435 | 18 | 221 | 6.4 | 8.0 | 0.00 | 0.00 | 0.00 | 45 | 1018.7 |
| 20260507163932 | 17 | 272 | 3.2 | 4.8 | 0.00 | 0.00 | 0.00 | 46 | 1018.5 |
| 20260507163429 | 17 | 291 | 0.0 | 1.6 | 0.00 | 0.00 | 0.00 | 48 | 1018.6 |
| 20260507162926 | 17 | 261 | 3.2 | 4.8 | 0.00 | 0.00 | 0.00 | 50 | 1018.7 |
| 20260507162421 | 17 | 285 | 4.8 | 6.4 | 0.00 | 0.00 | 0.00 | 44 | 1018.8 |
| 20260507161919 | 17 | 342 | 1.6 | 1.6 | 0.00 | 0.00 | 0.00 | 48 | 1018.6 |
| 20260507161414 | 17 | 201 | 1.6 | 1.6 | 0.00 | 0.00 | 0.00 | 48 | 1018.7 |
| 20260507160911 | 17 | 292 | 3.2 | 6.4 | 0.00 | 0.00 | 0.00 | 46 | 1018.8 |
| 20260507160408 | 17 | 295 | 3.2 | 4.8 | 0.00 | 0.00 | 0.00 | 46 | 1018.7 |
| 20260507155904 | 16 | 289 | 6.4 | 6.4 | 0.00 | 0.00 | 0.00 | 43 | 1019.0 |
| 20260507155359 | 17 | 224 | 1.6 | 1.6 | 0.00 | 0.00 | 0.00 | 44 | 1018.9 |
| 20260507154857 | 16 | 265 | 1.6 | 4.8 | 0.00 | 0.00 | 0.00 | 49 | 1019.0 |
| 20260507154354 | 16 | 243 | 8.0 | 8.0 | 0.00 | 0.00 | 0.00 | 44 | 1019.0 |
| 20260507153851 | 16 | 194 | 6.4 | 6.4 | 0.00 | 0.00 | 0.00 | 50 | 1019.0 |
| 20260507153347 | 16 | 182 | 3.2 | 4.8 | 0.00 | 0.00 | 0.00 | 50 | 1019.2 |
| 20260507152844 | 16 | 273 | 3.2 | 4.8 | 0.00 | 0.00 | 0.00 | 46 | 1019.3 |
| 20260507152340 | 15 | 155 | 9.7 | 12.9 | 0.00 | 0.00 | 0.00 | 43 | 1019.4 |
| 20260507151836 | 16 | 202 | 6.4 | 6.4 | 0.00 | 0.00 | 0.00 | 41 | 1019.2 |
| 20260507151332 | 16 | 248 | 3.2 | 4.8 | 0.00 | 0.00 | 0.00 | 48 | 1019.3 |
| 20260507150830 | 16 | 174 | 1.6 | 1.6 | 0.00 | 0.00 | 0.00 | 48 | 1019.3 |
| 20260507150326 | 15 | 183 | 4.8 | 6.4 | 0.00 | 0.00 | 0.00 | 53 | 1019.2 |
| 20260507145822 | 15 | 169 | 3.2 | 6.4 | 0.00 | 0.00 | 0.00 | 52 | 1019.2 |
| 20260507145319 | 15 | 179 | 6.4 | 8.0 | 0.00 | 0.00 | 0.00 | 50 | 1019.4 |
| 20260507144816 | 14 | 202 | 4.8 | 6.4 | 0.00 | 0.00 | 0.00 | 50 | 1019.4 |
| 20260507144313 | 14 | 220 | 3.2 | 6.4 | 0.00 | 0.00 | 0.00 | 53 | 1019.5 |
| 20260507143810 | 13 | 211 | 6.4 | 8.0 | 0.00 | 0.00 | 0.00 | 55 | 1019.2 |
| 20260507143308 | 13 | 113 | 3.2 | 4.8 | 0.00 | 0.00 | 0.00 | 56 | 1019.2 |
| 20260507142803 | 13 | 205 | 4.8 | 6.4 | 0.00 | 0.00 | 0.00 | 55 | 1019.2 |
| 20260507142300 | 13 | 139 | 3.2 | 4.8 | 0.00 | 0.00 | 0.00 | 55 | 1019.0 |
| 20260507141756 | 13 | 176 | 3.2 | 4.8 | 0.00 | 0.00 | 0.00 | 62 | 1019.5 |
| 20260507141254 | 13 | 149 | 3.2 | 4.8 | 0.00 | 0.00 | 0.00 | 58 | 1019.0 |
| 20260507140749 | 13 | 240 | 8.0 | 8.0 | 0.00 | 0.00 | 0.00 | 61 | 1019.4 |
| 20260507140247 | 12 | 164 | 1.6 | 1.6 | 0.00 | 0.00 | 0.00 | 68 | 1019.5 |
| 20260507135744 | 12 | 193 | 4.8 | 6.4 | 0.00 | 0.00 | 0.00 | 65 | 1019.5 |
| 20260507135241 | 12 | 216 | 6.4 | 6.4 | 0.00 | 0.00 | 0.00 | 66 | 1019.3 |
| 20260507134737 | 12 | 222 | 6.4 | 6.4 | 0.00 | 0.00 | 0.00 | 67 | 1019.4 |
| 20260507134234 | 12 | 173 | 3.2 | 4.8 | 0.00 | 0.00 | 0.00 | 68 | 1019.5 |
| 20260507133730 | 11 | 257 | 0.0 | 1.6 | 0.00 | 0.00 | 0.00 | 75 | 1019.5 |
| 20260507133227 | 10 | 167 | 0.0 | 1.6 | 0.00 | 0.00 | 0.00 | 86 | 1019.2 |
| 20260507132724 | 10 | 165 | 0.0 | 1.6 | 0.00 | 0.00 | 0.00 | 97 | 1019.4 |
| 20260507132221 | 8 | 350 | 1.6 | 1.6 | 0.00 | 0.00 | 0.00 | 99 | 1019.3 |
| 20260507131718 | 8 | 355 | 1.6 | 1.6 | 0.00 | 0.00 | 0.00 | 99 | 1019.4 |
| 20260507131215 | 8 | 293 | 0.0 | 0.0 | 0.00 | 0.00 | 0.00 | 99 | 1019.4 |
| 20260507130712 | 7 | 337 | 1.6 | 1.6 | 0.00 | 0.00 | 0.00 | 99 | 1019.4 |
| 20260507130210 | 7 | 204 | 0.0 | 0.0 | 0.00 | 0.00 | 0.00 | 99 | 1019.3 |
| 20260507125708 | 7 | 204 | 0.0 | 0.0 | 0.00 | 0.00 | 0.00 | 99 | 1019.4 |
| 20260507125205 | 6 | 322 | 0.0 | 1.6 | 0.00 | 0.00 | 0.00 | 99 | 1019.4 |
| 20260507124701 | 6 | 323 | 0.0 | 0.0 | 0.00 | 0.00 | 0.00 | 99 | 1019.4 |
| 20260507124159 | 5 | 325 | 1.6 | 1.6 | 0.00 | 0.00 | 0.00 | 99 | 1019.3 |
| 20260507123657 | 6 | 273 | 0.0 | 0.0 | 0.00 | 0.00 | 0.00 | 99 | 1019.0 |
| 20260507123154 | 6 | 273 | 0.0 | 0.0 | 0.00 | 0.00 | 0.00 | 99 | 1019.2 |
| 20260507122649 | 5 | 273 | 0.0 | 0.0 | 0.00 | 0.00 | 0.00 | 99 | 1019.2 |
| 20260507122145 | 3 | 273 | 0.0 | 0.0 | 0.00 | 0.00 | 0.00 | 99 | 1019.2 |
| 20260507121641 | 3 | 297 | 0.0 | 0.0 | 0.00 | 0.00 | 0.00 | 99 | 1019.0 |
| 20260507121137 | 3 | 298 | 0.0 | 0.0 | 0.00 | 0.00 | 0.00 | 99 | 1019.2 |
| 20260507120634 | 3 | 241 | 0.0 | 0.0 | 0.00 | 0.00 | 0.00 | 99 | 1018.8 |
| 20260507120130 | 3 | 241 | 0.0 | 0.0 | 0.00 | 0.00 | 0.00 | 99 | 1018.9 |
| 20260507115627 | 3 | 241 | 0.0 | 0.0 | 0.00 | 0.00 | 0.00 | 99 | 1018.7 |
| 20260507115122 | 3 | 241 | 0.0 | 0.0 | 0.00 | 0.00 | 0.00 | 99 | 1018.8 |
| 20260507114618 | 3 | 240 | 0.0 | 0.0 | 0.00 | 0.00 | 0.00 | 99 | 1018.7 |
| 20260507114116 | 3 | 241 | 0.0 | 0.0 | 0.00 | 0.00 | 0.00 | 99 | 1018.8 |
| 20260507113613 | 3 | 279 | 0.0 | 0.0 | 0.00 | 0.00 | 0.00 | 99 | 1018.8 |
| 20260507113110 | 3 | 279 | 0.0 | 0.0 | 0.00 | 0.00 | 0.00 | 99 | 1018.9 |
| 20260507112608 | 3 | 279 | 0.0 | 0.0 | 0.00 | 0.00 | 0.00 | 99 | 1018.8 |
| 20260507112104 | 3 | 275 | 0.0 | 0.0 | 0.00 | 0.00 | 0.00 | 99 | 1019.0 |
| 20260507111602 | 3 | 275 | 0.0 | 0.0 | 0.00 | 0.00 | 0.00 | 99 | 1019.0 |
| 20260507111058 | 3 | 275 | 0.0 | 0.0 | 0.00 | 0.00 | 0.00 | 99 | 1018.8 |
| 20260507110554 | 3 | 275 | 0.0 | 0.0 | 0.00 | 0.00 | 0.00 | 99 | 1018.8 |
| 20260507110051 | 3 | 275 | 0.0 | 0.0 | 0.00 | 0.00 | 0.00 | 99 | 1018.6 |
| 20260507105548 | 3 | 275 | 0.0 | 0.0 | 0.00 | 0.00 | 0.00 | 99 | 1018.5 |
| 20260507105044 | 3 | 276 | 0.0 | 0.0 | 0.00 | 0.00 | 0.00 | 99 | 1018.6 |
| 20260507104542 | 3 | 276 | 0.0 | 0.0 | 0.00 | 0.00 | 0.00 | 99 | 1018.4 |
| 20260507104038 | 3 | 276 | 0.0 | 0.0 | 0.00 | 0.00 | 0.00 | 99 | 1018.3 |
| 20260507103534 | 3 | 277 | 0.0 | 1.6 | 0.00 | 0.00 | 0.00 | 99 | 1018.4 |
| 20260507103031 | 3 | 275 | 0.0 | 0.0 | 0.00 | 0.00 | 0.00 | 99 | 1018.1 |
| 20260507102527 | 4 | 275 | 0.0 | 0.0 | 0.00 | 0.00 | 0.00 | 99 | 1018.2 |
| 20260507102024 | 4 | 276 | 0.0 | 0.0 | 0.00 | 0.00 | 0.00 | 99 | 1018.3 |
| 20260507101519 | 4 | 277 | 0.0 | 0.0 | 0.00 | 0.00 | 0.00 | 99 | 1018.3 |
| 20260507101016 | 4 | 278 | 0.0 | 0.0 | 0.00 | 0.00 | 0.00 | 99 | 1018.3 |
| 20260507100513 | 3 | 276 | 0.0 | 1.6 | 0.00 | 0.00 | 0.00 | 99 | 1018.4 |
| 20260507100011 | 3 | 264 | 0.0 | 0.0 | 0.00 | 0.00 | 0.00 | 99 | 1018.3 |
| 20260507095509 | 3 | 275 | 0.0 | 0.0 | 0.00 | 0.00 | 0.00 | 99 | 1018.2 |
| 20260507095005 | 3 | 278 | 0.0 | 0.0 | 0.00 | 0.00 | 0.00 | 99 | 1018.4 |
| 20260507094501 | 3 | 285 | 0.0 | 0.0 | 0.00 | 0.00 | 0.00 | 98 | 1018.2 |
| 20260507093959 | 3 | 286 | 0.0 | 0.0 | 0.00 | 0.00 | 0.00 | 98 | 1018.3 |
| 20260507093456 | 3 | 254 | 0.0 | 0.0 | 0.00 | 0.00 | 0.00 | 99 | 1018.4 |
| 20260507092954 | 3 | 250 | 0.0 | 0.0 | 0.00 | 0.00 | 0.00 | 98 | 1018.6 |
| 20260507092450 | 3 | 255 | 0.0 | 0.0 | 0.00 | 0.00 | 0.00 | 98 | 1018.6 |
| 20260507091947 | 3 | 274 | 0.0 | 0.0 | 0.00 | 0.00 | 0.00 | 98 | 1018.8 |
| 20260507091444 | 3 | 279 | 0.0 | 0.0 | 0.00 | 0.00 | 0.00 | 98 | 1018.8 |
| 20260507090940 | 3 | 292 | 1.6 | 1.6 | 0.00 | 0.00 | 0.00 | 98 | 1018.6 |
| 20260507090436 | 3 | 244 | 0.0 | 0.0 | 0.00 | 0.00 | 0.00 | 98 | 1018.4 |
| 20260507085932 | 2 | 244 | 0.0 | 0.0 | 0.00 | 0.00 | 0.00 | 98 | 1018.6 |
| 20260507085430 | 2 | 245 | 0.0 | 0.0 | 0.00 | 0.00 | 0.00 | 98 | 1018.7 |
| 20260507084927 | 3 | 245 | 0.0 | 0.0 | 0.00 | 0.00 | 0.00 | 98 | 1018.8 |
| 20260507084424 | 3 | 244 | 0.0 | 0.0 | 0.00 | 0.00 | 0.00 | 98 | 1018.9 |
| 20260507083921 | 3 | 245 | 0.0 | 0.0 | 0.00 | 0.00 | 0.00 | 98 | 1018.7 |
| 20260507083417 | 3 | 243 | 0.0 | 0.0 | 0.00 | 0.00 | 0.00 | 98 | 1018.7 |
| 20260507082913 | 3 | 270 | 0.0 | 0.0 | 0.00 | 0.00 | 0.00 | 98 | 1018.6 |
| 20260507082409 | 3 | 275 | 0.0 | 0.0 | 0.00 | 0.00 | 0.00 | 98 | 1018.6 |
| 20260507081907 | 3 | 269 | 0.0 | 0.0 | 0.00 | 0.00 | 0.00 | 98 | 1018.6 |
| 20260507081402 | 3 | 278 | 0.0 | 0.0 | 0.00 | 0.00 | 0.00 | 98 | 1018.4 |
| 20260507080859 | 3 | 263 | 0.0 | 0.0 | 0.00 | 0.00 | 0.00 | 98 | 1018.6 |
| 20260507080355 | 3 | 258 | 0.0 | 0.0 | 0.00 | 0.00 | 0.00 | 98 | 1018.7 |
| 20260507075851 | 3 | 247 | 0.0 | 0.0 | 0.00 | 0.00 | 0.00 | 98 | 1018.7 |
| 20260507075347 | 3 | 277 | 0.0 | 0.0 | 0.00 | 0.00 | 0.00 | 98 | 1018.6 |
| 20260507074844 | 3 | 257 | 0.0 | 0.0 | 0.00 | 0.00 | 0.00 | 98 | 1018.2 |
| 20260507074341 | 3 | 257 | 0.0 | 0.0 | 0.00 | 0.00 | 0.00 | 98 | 1018.4 |
| 20260507073838 | 3 | 257 | 0.0 | 0.0 | 0.00 | 0.00 | 0.00 | 98 | 1018.2 |
| 20260507073335 | 3 | 256 | 0.0 | 0.0 | 0.00 | 0.00 | 0.00 | 98 | 1018.4 |
| 20260507072832 | 3 | 256 | 0.0 | 0.0 | 0.00 | 0.00 | 0.00 | 98 | 1018.5 |
| 20260507072329 | 3 | 280 | 0.0 | 0.0 | 0.00 | 0.00 | 0.00 | 98 | 1018.5 |
| 20260507071827 | 3 | 292 | 0.0 | 0.0 | 0.00 | 0.00 | 0.00 | 97 | 1018.6 |
| 20260507071324 | 3 | 292 | 0.0 | 0.0 | 0.00 | 0.00 | 0.00 | 97 | 1018.5 |
| 20260507070820 | 4 | 293 | 0.0 | 0.0 | 0.00 | 0.00 | 0.00 | 97 | 1018.5 |
| 20260507070318 | 4 | 297 | 1.6 | 1.6 | 0.00 | 0.00 | 0.00 | 97 | 1018.6 |
| 20260507065814 | 4 | 199 | 0.0 | 0.0 | 0.00 | 0.00 | 0.00 | 97 | 1018.5 |
| 20260507065310 | 4 | 199 | 0.0 | 0.0 | 0.00 | 0.00 | 0.00 | 97 | 1018.6 |
| 20260507064808 | 4 | 199 | 0.0 | 0.0 | 0.00 | 0.00 | 0.00 | 97 | 1018.7 |
| 20260507064307 | 4 | 199 | 0.0 | 0.0 | 0.00 | 0.00 | 0.00 | 97 | 1018.7 |
| 20260507063804 | 4 | 199 | 0.0 | 0.0 | 0.00 | 0.00 | 0.00 | 97 | 1018.9 |
| 20260507063301 | 5 | 199 | 0.0 | 0.0 | 0.00 | 0.00 | 0.00 | 97 | 1019.2 |
| 20260507062757 | 4 | 199 | 0.0 | 0.0 | 0.00 | 0.00 | 0.00 | 97 | 1018.7 |
| 20260507062255 | 4 | 199 | 0.0 | 0.0 | 0.00 | 0.00 | 0.00 | 97 | 1018.7 |
| 20260507061752 | 5 | 199 | 0.0 | 0.0 | 0.00 | 0.00 | 0.00 | 97 | 1018.7 |
| 20260507061250 | 5 | 199 | 0.0 | 0.0 | 0.00 | 0.00 | 0.00 | 97 | 1018.6 |
| 20260507060748 | 5 | 199 | 0.0 | 0.0 | 0.00 | 0.00 | 0.00 | 97 | 1018.7 |
| 20260507060244 | 5 | 199 | 0.0 | 0.0 | 0.00 | 0.00 | 0.00 | 97 | 1018.7 |
| 20260507055741 | 5 | 199 | 0.0 | 0.0 | 0.00 | 0.00 | 0.00 | 97 | 1018.8 |
| 20260507055236 | 5 | 199 | 0.0 | 0.0 | 0.00 | 0.00 | 0.00 | 97 | 1018.6 |
| 20260507054733 | 5 | 199 | 0.0 | 0.0 | 0.00 | 0.00 | 0.00 | 97 | 1018.5 |
| 20260507054230 | 5 | 199 | 0.0 | 0.0 | 0.00 | 0.00 | 0.00 | 97 | 1018.4 |
| 20260507053727 | 5 | 199 | 0.0 | 0.0 | 0.00 | 0.00 | 0.00 | 97 | 1018.5 |
| 20260507053225 | 5 | 199 | 0.0 | 0.0 | 0.00 | 0.00 | 0.00 | 96 | 1018.6 |
| 20260507052724 | 5 | 199 | 0.0 | 0.0 | 0.00 | 0.00 | 0.00 | 96 | 1018.6 |
| 20260507052219 | 5 | 199 | 0.0 | 0.0 | 0.00 | 0.00 | 0.00 | 96 | 1018.7 |
| 20260507051718 | 5 | 199 | 0.0 | 0.0 | 0.00 | 0.00 | 0.00 | 96 | 1018.9 |
| 20260507051214 | 5 | 199 | 0.0 | 0.0 | 0.00 | 0.00 | 0.00 | 96 | 1018.6 |
| 20260507050711 | 5 | 199 | 0.0 | 0.0 | 0.00 | 0.00 | 0.00 | 96 | 1018.7 |
| 20260507050208 | 5 | 199 | 0.0 | 0.0 | 0.00 | 0.00 | 0.00 | 96 | 1018.6 |
| 20260507045704 | 5 | 199 | 0.0 | 0.0 | 0.00 | 0.00 | 0.00 | 96 | 1018.5 |
| 20260507045200 | 5 | 199 | 0.0 | 0.0 | 0.00 | 0.00 | 0.00 | 96 | 1018.5 |
| 20260507044658 | 5 | 199 | 0.0 | 0.0 | 0.00 | 0.00 | 0.00 | 95 | 1018.8 |
| 20260507044154 | 6 | 199 | 0.0 | 0.0 | 0.00 | 0.00 | 0.00 | 95 | 1018.6 |
| 20260507043651 | 6 | 199 | 0.0 | 0.0 | 0.00 | 0.00 | 0.00 | 95 | 1018.5 |
| 20260507043148 | 6 | 199 | 0.0 | 0.0 | 0.00 | 0.00 | 0.00 | 95 | 1018.5 |
| 20260507042644 | 6 | 199 | 0.0 | 0.0 | 0.00 | 0.00 | 0.00 | 95 | 1018.5 |
| 20260507042139 | 6 | 199 | 0.0 | 0.0 | 0.00 | 0.00 | 0.00 | 95 | 1018.5 |
| 20260507041637 | 6 | 199 | 0.0 | 0.0 | 0.00 | 0.00 | 0.00 | 95 | 1018.4 |
| 20260507041133 | 6 | 199 | 0.0 | 0.0 | 0.00 | 0.00 | 0.00 | 95 | 1018.4 |
| 20260507040630 | 6 | 199 | 0.0 | 0.0 | 0.00 | 0.00 | 0.00 | 94 | 1018.3 |
| 20260507040126 | 6 | 199 | 0.0 | 0.0 | 0.00 | 0.00 | 0.00 | 94 | 1018.5 |
| 20260507035622 | 6 | 199 | 0.0 | 0.0 | 0.00 | 0.00 | 0.00 | 94 | 1018.3 |
| 20260507035118 | 6 | 199 | 0.0 | 0.0 | 0.00 | 0.00 | 0.00 | 94 | 1018.1 |
| 20260507034615 | 6 | 199 | 0.0 | 0.0 | 0.00 | 0.00 | 0.00 | 93 | 1018.4 |
| 20260507034113 | 6 | 199 | 0.0 | 0.0 | 0.00 | 0.00 | 0.00 | 93 | 1018.3 |
| 20260507033611 | 6 | 199 | 0.0 | 0.0 | 0.00 | 0.00 | 0.00 | 93 | 1018.4 |
| 20260507033108 | 6 | 199 | 0.0 | 0.0 | 0.00 | 0.00 | 0.00 | 92 | 1018.1 |
| 20260507032605 | 6 | 199 | 0.0 | 0.0 | 0.00 | 0.00 | 0.00 | 92 | 1018.1 |
| 20260507032101 | 6 | 199 | 0.0 | 0.0 | 0.00 | 0.00 | 0.00 | 92 | 1018.0 |
| 20260507031558 | 6 | 199 | 0.0 | 0.0 | 0.00 | 0.00 | 0.00 | 92 | 1018.1 |
| 20260507031055 | 7 | 199 | 0.0 | 0.0 | 0.00 | 0.00 | 0.00 | 91 | 1018.0 |
| 20260507030551 | 6 | 199 | 0.0 | 0.0 | 0.00 | 0.00 | 0.00 | 91 | 1017.9 |
| 20260507030049 | 7 | 199 | 0.0 | 0.0 | 0.00 | 0.00 | 0.00 | 90 | 1017.9 |
| 20260507025546 | 7 | 199 | 0.0 | 0.0 | 0.00 | 0.00 | 0.00 | 90 | 1017.9 |
| 20260507025043 | 7 | 199 | 0.0 | 0.0 | 0.00 | 0.00 | 0.00 | 90 | 1017.9 |
| 20260507024541 | 7 | 199 | 0.0 | 0.0 | 0.00 | 0.00 | 0.00 | 89 | 1017.8 |
| 20260507024038 | 7 | 199 | 0.0 | 0.0 | 0.00 | 0.00 | 0.00 | 87 | 1017.9 |
| 20260507023533 | 7 | 199 | 0.0 | 0.0 | 0.00 | 0.00 | 0.00 | 87 | 1017.6 |
| 20260507023031 | 7 | 199 | 0.0 | 0.0 | 0.00 | 0.00 | 0.00 | 86 | 1017.7 |
| 20260507022528 | 8 | 199 | 0.0 | 0.0 | 0.00 | 0.00 | 0.00 | 86 | 1017.7 |
| 20260507022028 | 8 | 199 | 0.0 | 0.0 | 0.00 | 0.00 | 0.00 | 86 | 1017.6 |
| 20260507021525 | 8 | 199 | 0.0 | 0.0 | 0.00 | 0.00 | 0.00 | 85 | 1017.4 |
| 20260507021021 | 8 | 199 | 0.0 | 0.0 | 0.00 | 0.00 | 0.00 | 84 | 1017.6 |
| 20260507020519 | 8 | 199 | 0.0 | 0.0 | 0.00 | 0.00 | 0.00 | 84 | 1017.5 |
| 20260507020015 | 8 | 199 | 0.0 | 0.0 | 0.00 | 0.00 | 0.00 | 82 | 1017.4 |
| 20260507015514 | 8 | 199 | 0.0 | 0.0 | 0.00 | 0.00 | 0.00 | 81 | 1017.3 |
| 20260507015011 | 8 | 199 | 0.0 | 0.0 | 0.00 | 0.00 | 0.00 | 80 | 1017.2 |
| 20260507014507 | 9 | 160 | 0.0 | 1.6 | 0.00 | 0.00 | 0.00 | 79 | 1017.2 |
| 20260507014003 | 9 | 148 | 0.0 | 0.0 | 0.00 | 0.00 | 0.00 | 79 | 1017.2 |
| 20260507013500 | 10 | 308 | 0.0 | 1.6 | 0.00 | 0.00 | 0.00 | 78 | 1017.2 |
| 20260507012957 | 10 | 296 | 0.0 | 0.0 | 0.00 | 0.00 | 0.00 | 76 | 1017.3 |
| 20260507012454 | 10 | 296 | 0.0 | 0.0 | 0.00 | 0.00 | 0.00 | 76 | 1017.1 |
| 20260507011951 | 11 | 296 | 0.0 | 0.0 | 0.00 | 0.00 | 0.00 | 73 | 1017.1 |
| 20260507011448 | 11 | 296 | 0.0 | 0.0 | 0.00 | 0.00 | 0.00 | 71 | 1017.0 |
| 20260507010943 | 11 | 296 | 0.0 | 0.0 | 0.00 | 0.00 | 0.00 | 68 | 1016.9 |
| 20260507010438 | 11 | 297 | 0.0 | 0.0 | 0.00 | 0.00 | 0.00 | 65 | 1016.9 |